Flag for Norway Weather past 2 weeks in Molde, Norway

43 °F

Light rain. Fog.

Feels Like: 35 °F
Forecast: 41 / 43 °F
Wind: 17 mph from West

Location: Molde / Aro

Current Time: Nov 27, 2015 at 8:28:51 PM

Latest Report: Nov 27, 2015 at 7:50 PM

Visibility: N/A

Pressure: 29.03 "Hg

Humidity: 93%

Dew point: 41 °F

Location of MoldeLocation

Historic Weather in Molde — Graph


Molde temperature yesterday

Maximum temperature yesterday: 50 °F (at 10:50 PM)
Minimum temperature yesterday: 36 °F (at 1:20 AM)
Average temperature yesterday: 43 °F

Past Weeks' High & Low Weather Summary

High52 °F (Nov 13, 7:20 AM)100% (Nov 12, 6:20 PM)29.89 "Hg (Nov 12, 6:20 PM)
Low27 °F (Nov 21, 6:50 AM)43% (Nov 14, 6:50 AM)28.97 "Hg (Nov 27, 2:50 PM)
Average39 °F82%29.40 "Hg
* Reported Nov 12 6:20 PM — Nov 27 6:50 PM, Molde, Weather by CustomWeather, © 2015

Note: Actual official high and low records may vary slightly from our data, if they occured in-between our weather recording intervals... More about our weather records


Molde weather history for previous 24 hours

Time TempWeatherWind HumidityBarometerVisibility
6:50 PM
Fri, Nov 27
45 °FLight rain. Passing clouds.21 mph87%29.00 "HgN/A
6:20 PM46 °FLight rain. Passing clouds.21 mph87%29.00 "HgN/A
5:50 PM46 °FLight rain. Passing clouds.29 mph82%29.00 "HgN/A
5:20 PM46 °FLight rain. Fog.17 mph87%29.00 "HgN/A
4:50 PM46 °FRain. Partly cloudy.25 mph87%29.00 "Hg5 mi
4:20 PM48 °FLight rain. Partly cloudy.6 mph94%28.97 "HgN/A
3:50 PM48 °FLight rain. Partly cloudy.7 mph94%28.97 "HgN/A
3:20 PM48 °FLight rain. Partly cloudy.7 mph94%28.97 "HgN/A
2:50 PM48 °FLight rain. Broken clouds.13 mph94%28.97 "HgN/A
2:20 PM50 °FLight rain. Broken clouds.16 mph88%29.00 "HgN/A
1:50 PM50 °FLight rain. Broken clouds.17 mph88%29.00 "HgN/A
1:20 PM48 °FRain. Broken clouds.21 mph94%29.03 "Hg6 mi
12:50 PM48 °FRain. Broken clouds.3 mph94%29.03 "Hg5 mi
12:20 PM48 °FRain. Broken clouds.7 mph94%29.03 "Hg5 mi
11:50 AM48 °FLight rain. Broken clouds.5 mph94%29.03 "HgN/A
11:20 AM48 °FLight rain. Broken clouds.2 mph94%29.06 "HgN/A
10:50 AM46 °FLight rain. Broken clouds.1 mph100%29.06 "HgN/A
10:20 AM46 °FRain. Broken clouds.2 mph100%29.06 "HgN/A
9:50 AM46 °FRain. Broken clouds.No wind100%29.09 "HgN/A
9:20 AM46 °FRain. Broken clouds.2 mph93%29.09 "HgN/A
8:50 AM46 °FRain. Partly cloudy.2 mph100%29.09 "HgN/A
7:50 AM46 °FRain. Partly cloudy.3 mph93%29.09 "HgN/A
7:20 AM46 °FRain. Partly cloudy.2 mph100%29.12 "HgN/A
6:50 AM46 °FRain. Partly cloudy.7 mph100%29.12 "HgN/A
6:20 AM48 °FRain. Partly cloudy.8 mph94%29.15 "HgN/A
5:50 AM48 °FRain. Passing clouds.6 mph94%29.18 "HgN/A
4:50 AM48 °FRain. Mostly cloudy.10 mph94%29.18 "Hg2 mi
4:20 AM46 °FLight rain. Mostly cloudy.7 mph100%29.21 "Hg3 mi
3:50 AM48 °FLight rain. Overcast.12 mph94%29.24 "Hg2 mi
3:20 AM48 °FLight rain. Partly cloudy.20 mph94%29.27 "Hg2 mi
2:50 AM48 °FLight rain. Mostly cloudy.15 mph94%29.27 "Hg1 mi
2:20 AM48 °FLight rain. Fog.26 mph94%29.27 "Hg3 mi
1:50 AM48 °FLight rain. Overcast.20 mph94%29.27 "Hg2 mi
1:20 AM48 °FLight rain. Overcast.23 mph94%29.27 "Hg3 mi
12:50 AM48 °FRain. Partly cloudy.23 mph94%29.30 "Hg4 mi
12:20 AM48 °FRain. Passing clouds.29 mph94%29.30 "Hg2 mi
11:50 PM
Thu, Nov 26
50 °FRain. Partly cloudy.32 mph88%29.27 "Hg2 mi
10:50 PM50 °FLight rain. Passing clouds.26 mph88%29.27 "Hg6 mi
10:20 PM48 °FRain. Passing clouds.22 mph87%29.27 "Hg4 mi
9:50 PM46 °FRain. Passing clouds.21 mph93%29.27 "Hg3 mi
9:20 PM46 °FRain. Passing clouds.20 mph93%29.27 "Hg4 mi
8:50 PM46 °FRain. Light fog.22 mph93%29.27 "Hg4 mi
8:20 PM46 °FRain. Fog.22 mph93%29.27 "Hg3 mi
Weather by CustomWeather, © 2015

See weather overviewHow to use our weather pages